[ ตารางข้อมูล ] [ Min-Max ] [ วันนี้2 ] [ วันนี้4 ] [ เทียบ-A 3วัน ] [ เทียบ-B 4วัน ]   

วันนี้4   [ ◀ ช่วงเก่ากว่า ] [ ช่วงที่ 13 ] [ ช่วงใหม่กว่า ▶ ] [ ล่าสุด ]    [ 3 ชั่วโมง ] [ 6 ชั่วโมง ] [ 12 ชั่วโมง ] [ 24 ชั่วโมง ]   วันนี้4

อุณภูมิในตู้ Knockdown4529  ราย 24 ชั่วโมง  ที่วัดได้ ในช่วงวันเวลา 18/08/2026 (15:52) ถึง 19/08/2026 (15:52) 
ความชื้นในตู้ Knockdown4529  ราย 24 ชั่วโมง  ที่วัดได้ ในช่วงวันเวลา 18/08/2026 (15:52) ถึง 19/08/2026 (15:52) 
การใช้ไฟฟ้าในตู้ Knockdown4529  ราย 24 ชั่วโมง  ที่วัดได้ ในช่วงวันเวลา 18/08/2026 (15:52) ถึง 19/08/2026 (15:52) 

  DS18B20SHTC3PZEM-004TWiFi 
IDDate d/m/Y & Timedata1
สูง
data2
ต่ำ
data3
นอก
temp
pcb
hum
pcb
VoltAmpWattrssiTime
 14085  19/08/2026 15:48:27  34.4  33.4  34.5  35.3  64.7  235.9  0.04  4.4  -78  15:48 
 14084  19/08/2026 15:43:43  34.4  33.4  34.4  35.3  64.7  235.8  0.04  4.4  -77  15:43 
 14083  19/08/2026 15:38:58  34.4  33.4  34.4  35.2  64.6  235.3  0.04  4.4  -76  15:38 
 14082  19/08/2026 15:34:15  34.4  33.4  34.4  35.3  64.4  235.3  0.04  4.4  -77  15:34 
 14081  19/08/2026 15:29:31  34.4  33.3  34.5  35.4  64.4  235.2  0.04  4.4  -74  15:29 
 14080  19/08/2026 15:24:47  34.4  33.3  34.3  35.3  64.2  235.1  0.04  4.4  -79  15:24 
 14079  19/08/2026 15:20:03  34.4  33.3  34.4  35.2  64.5  235.0  0.04  4.4  -78  15:20 
 14078  19/08/2026 15:15:20  34.4  33.3  34.9  35.3  64.4  233.6  0.04  4.4  -78  15:15 
 14077  19/08/2026 15:10:37  34.5  33.2  34.9  35.3  64.3  235.3  0.04  4.4  -77  15:10 
 14076  19/08/2026 15:05:51  34.5  33.2  34.8  35.3  64.2  235.7  0.04  4.4  -74  15:05 
 14075  19/08/2026 15:01:07  34.5  33.2  35.0  35.4  64.3  233.4  0.04  4.4  -77  15:01 
 14074  19/08/2026 14:56:24  34.5  33.2  35.0  35.4  64.2  235.5  0.04  4.4  -77  14:56 
 14073  19/08/2026 14:51:40  34.5  33.2  35.0  35.5  64.2  234.2  0.04  4.4  -75  14:51 
 14072  19/08/2026 14:46:57  34.5  33.2  34.9  35.3  64.1  235.3  0.04  4.4  -77  14:46 
 14071  19/08/2026 14:42:13  34.5  33.1  35.0  35.5  64.2  236.0  0.04  4.4  -77  14:42 
 14070  19/08/2026 14:37:29  34.5  33.1  35.0  35.5  64.0  236.2  0.04  4.4  -77  14:37 
 14069  19/08/2026 14:32:46  34.6  33.1  34.7  35.5  64.0  236.2  0.04  4.4  -77  14:32 
 14068  19/08/2026 14:28:03  34.6  33.1  34.9  35.3  64.1  236.2  0.04  4.4  -77  14:28 
 14067  19/08/2026 14:23:19  34.6  33.1  35.2  35.3  64.2  235.3  0.04  4.4  -78  14:23 
 14066  19/08/2026 14:18:35  34.6  33.0  35.2  35.4  64.3  236.1  0.04  4.4  -76  14:18 
 14065  19/08/2026 14:13:52  34.5  33.0  35.2  35.3  64.3  236.6  0.04  4.4  -76  14:13 
 14064  19/08/2026 14:09:08  34.5  32.9  35.2  35.3  64.3  237.1  0.04  4.4  -76  14:09 
 14063  19/08/2026 14:04:25  34.4  32.9  35.3  35.3  64.3  237.0  0.04  4.4  -78  14:04 
 14062  19/08/2026 13:59:41  34.4  32.9  35.2  35.3  64.7  236.9  0.04  4.4  -76  13:59 

Data every 5 minute.


ใช้เวลาประมวลผล 0.02876 วินาที